User: anonymous
Location: NJAA Observatory
(40.6819°N, 74.8979°W)
Time: 00:04:46
(UTC-04:00)
Language:

Cosmos 1633 - Orbit

View from above orbital plane
View from above orbital plane
View from above satellite
View from above satellite

Ground track
Ground track

The orbit data is extracted from the following two-line orbital elements,

1 15592U 85020A   14261.46023633  .00007077  00000-0  33145-3 0  5444
2 15592 082.5388 239.0936 0019718 105.8400 012.7394 15.19376001611449
Epoch (UTC): 18 September 2014 11:02:44
Eccentricity: 0.0019718
inclination: 82.5388°
perigee height: 494 km
apogee height: 521 km
right ascension of ascending node: 239.0936°
argument of perigee: 105.8400°
revolutions per day: 15.19376001
mean anomaly at epoch: 12.7394°
orbit number at epoch: 61144

The dashed part of the orbit path shows where the satellite is in the earth's shadow,  

DLR